STARLINK-30975, 58446

Orbit data source: Space-Track

STARLINK-30975, 58446 is a payload satellite owned by SpaceX/Seattle (US) in LEO that was launched on Tue, 28 Nov 2023 UTC via an FALCON 9 launch vehicle from the Air Force Eastern Test Range (AFETR). Payload-class satellites include a variety of spacecraft equipped with specific instruments for various scientific and technological missions. These include communications satellites like Starlink; space stations such as the ISS; scientific satellites like the Hubble; Earth observation satellites from companies like Planet Labs, Umbra, and HawkEye 360; GPS; miniature CubeSats for education and research; and military/defense satellites.

Loading next visibility...
Identifier
58446, 2023-183K
Orbit
LEO
Country
Flag of USUS
Related business
Manufacturer
SpaceX/Seattle
Mission
Operational Commercial Communications
Bus & Motor
STARLINK V2M, Unknown motor
Mass
730 kg wet, ~700 kg dry
Launch date (UTC)
2023-11-28 (3 years ago)
Launch vehicle
FALCON 9
Launch site
Air Force Eastern Test Range (AFETR)
Object type
Payload
Rocket body
Debris
Shape & HBR
Box + 2 Pan, 17.7 m
Radar Cross Section
33.884 m², Large (>1 m²)

Expand to show TLE details & history
Last TLE update: 2 days ago

TLE from 2 days ago
0 STARLINK-30975
1 58446U 23183K   26171.32646108  .00001216  00000-0  53685-4 0  9992
2 58446  42.9998 181.7675 0001250 278.1996  81.8714 15.27580779142451
Epoch: 2026-06-20T07:50Z
TLE epoch observation values (Epoch: 2026-06-20T07:50:06.237Z)
Latitude
Longitude
155.69883°
Altitude
482.701 km
Speed
7.626 km/s
True Right ascension
12h 07m 04s
True Declination
0° 00' 00"
Sunlit
Object was in daylight at epoch
Visualization orbit readout
Latitude
Unknown
Longitude
Unknown
Altitude
Unknown
Speed
Unknown
Apparent Right ascension
Unknown
Apparent Declination
Unknown
Sunlit
N/A
Visualization observer readout
Local Sidereal Time
21:26:53
Azimuth
Unknown
Elevation
Unknown
Doppler factor
Unknown
Orbital elements
Apogee altitude
485.85 km
Perigee altitude
484.134 km
Semi-major axis
6,863.129 km
Eccentricity
0.00013
Inclination
42.9998°
RAAN
181.7675°
Arg. of periapsis
278.1996°
True anomaly
81.88558°
Mean anomaly
81.8714°
Eccentric anomaly
81.87849°
Mean motion
3.81733 °/min
Orbital period
94.31 mins
BSTAR
0.000053685
Loading maneuver chart data...
Computing Atmospheric mass density...
Loading historical data...
Loading historical data...
Loading historical data...
Loading historical data...
Loading historical data...
Loading historical data...
Loading historical data...

Documentation

Showing up to 5 results
|